Time,TemperatureF,DewpointF,PressureIn,WindDirection,WindDirectionDegrees,WindSpeedMPH,WindSpeedGustMPH,Humidity,HourlyPrecipIn,Conditions,Clouds,dailyrainin,SolarRadiationWatts/m^2,SoftwareType,DateUTC
2013-08-21 00:24:00,71.4,68.0,30.15,WNW,298,0.0,0.0,89,0.00,FEW,,0.00,0.0,WeatherDisplay:10.37,2013-08-21 04:24:00,
2013-08-21 00:34:00,71.2,68.1,30.15,WNW,298,0.0,0.0,90,0.00,FEW,,0.00,0.0,WeatherDisplay:10.37,2013-08-21 04:34:00,
2013-08-21 00:54:00,70.8,67.7,30.15,WNW,298,0.0,0.0,90,0.00,FEW,,0.00,0.0,WeatherDisplay:10.37,2013-08-21 04:54:00,
2013-08-21 01:04:00,70.6,67.9,30.15,WNW,298,0.0,0.0,91,0.00,FEW,,0.00,0.0,WeatherDisplay:10.37,2013-08-21 05:04:00,
2013-08-21 01:14:00,70.5,67.7,30.14,WNW,298,0.0,0.0,91,0.00,FEW,,0.00,0.0,WeatherDisplay:10.37,2013-08-21 05:14:00,
2013-08-21 01:34:00,70.2,67.4,30.15,WNW,298,0.0,3.0,91,0.00,BKN,,0.00,0.0,WeatherDisplay:10.37,2013-08-21 05:34:00,
2013-08-21 01:54:00,70.3,67.5,30.15,WNW,298,0.0,1.0,91,0.00,FEW,,0.00,0.0,WeatherDisplay:10.37,2013-08-21 05:54:00,
2013-08-21 02:04:00,70.2,67.4,30.15,WNW,298,0.0,1.0,91,0.00,SCT,,0.00,0.0,WeatherDisplay:10.37,2013-08-21 06:04:00,
2013-08-21 02:14:00,70.3,67.5,30.15,WNW,298,0.0,5.0,91,0.00,SCT,,0.00,0.0,WeatherDisplay:10.37,2013-08-21 06:14:00,
2013-08-21 02:24:00,70.3,67.5,30.15,WNW,298,0.0,0.0,91,0.00,SCT,,0.00,0.0,WeatherDisplay:10.37,2013-08-21 06:24:00,
2013-08-21 02:34:00,70.3,67.5,30.15,WNW,298,0.0,0.0,91,0.00,SCT,,0.00,0.0,WeatherDisplay:10.37,2013-08-21 06:34:00,
2013-08-21 02:54:00,70.1,67.4,30.15,WNW,298,0.0,0.0,91,0.00,SCT,,0.00,0.0,WeatherDisplay:10.37,2013-08-21 06:54:00,
2013-08-21 03:04:00,70.1,67.3,30.15,WNW,298,0.0,0.0,91,0.00,SCT,,0.00,0.0,WeatherDisplay:10.37,2013-08-21 07:04:00,
2013-08-21 03:14:00,70.0,67.3,30.15,WNW,298,0.0,0.0,91,0.00,SCT,,0.00,0.0,WeatherDisplay:10.37,2013-08-21 07:14:00,
2013-08-21 03:24:00,70.1,67.7,30.15,WNW,298,0.0,3.0,92,0.00,BKN,,0.00,0.0,WeatherDisplay:10.37,2013-08-21 07:24:00,
2013-08-21 03:34:00,70.1,67.7,30.15,WNW,298,0.0,3.0,92,0.00,BKN,,0.00,0.0,WeatherDisplay:10.37,2013-08-21 07:34:00,
2013-08-21 03:44:00,70.2,67.8,30.15,WNW,298,0.0,3.0,92,0.00,BKN,,0.00,0.0,WeatherDisplay:10.37,2013-08-21 07:44:00,
2013-08-21 03:54:00,70.4,68.0,30.15,WNW,298,0.0,5.0,92,0.00,OVC,,0.00,0.0,WeatherDisplay:10.37,2013-08-21 07:54:00,
2013-08-21 04:04:00,70.3,67.9,30.15,WNW,298,0.0,0.0,92,0.00,SCT,,0.00,0.0,WeatherDisplay:10.37,2013-08-21 08:04:00,
2013-08-21 04:14:00,70.1,67.7,30.14,WNW,298,0.0,0.0,92,0.00,FEW,,0.00,0.0,WeatherDisplay:10.37,2013-08-21 08:14:00,
2013-08-21 04:24:00,69.9,67.5,30.15,WNW,298,0.0,0.0,92,0.00,SCT,,0.00,0.0,WeatherDisplay:10.37,2013-08-21 08:24:00,
2013-08-21 04:34:00,69.8,67.4,30.15,WNW,298,0.0,0.0,92,0.00,SCT,,0.00,0.0,WeatherDisplay:10.37,2013-08-21 08:34:00,
2013-08-21 04:44:00,69.6,67.2,30.15,WNW,298,0.0,0.0,92,0.00,FEW,,0.00,0.0,WeatherDisplay:10.37,2013-08-21 08:44:00,
2013-08-21 04:54:00,69.4,67.0,30.15,WNW,298,0.0,0.0,92,0.00,SCT,,0.00,0.0,WeatherDisplay:10.37,2013-08-21 08:54:00,
2013-08-21 05:14:00,69.1,66.7,30.15,WNW,298,0.0,0.0,92,0.00,BKN,,0.00,0.0,WeatherDisplay:10.37,2013-08-21 09:14:00,
2013-08-21 05:24:00,69.0,66.6,30.15,WNW,298,0.0,0.0,92,0.00,SCT,,0.00,0.0,WeatherDisplay:10.37,2013-08-21 09:24:00,
2013-08-21 05:34:00,68.8,66.7,30.15,WNW,298,0.0,0.0,93,0.00,BKN,,0.00,0.0,WeatherDisplay:10.37,2013-08-21 09:34:00,
2013-08-21 05:44:00,68.7,66.6,30.15,WNW,298,0.0,0.0,93,0.00,SCT,,0.00,0.0,WeatherDisplay:10.37,2013-08-21 09:44:00,
2013-08-21 05:54:00,68.5,66.4,30.15,WNW,298,0.0,0.0,93,0.00,BKN,,0.00,0.0,WeatherDisplay:10.37,2013-08-21 09:54:00,
2013-08-21 06:14:00,68.2,66.1,30.16,WNW,298,0.0,0.0,93,0.00,OVC,,0.00,0.0,WeatherDisplay:10.37,2013-08-21 10:14:00,
2013-08-21 06:24:00,68.1,66.0,30.17,WNW,298,0.0,0.0,93,0.00,OVC,,0.00,5.0,WeatherDisplay:10.37,2013-08-21 10:24:00,
2013-08-21 06:34:00,68.0,65.9,30.17,WNW,298,0.0,0.0,93,0.00,CLR,,0.00,11.0,WeatherDisplay:10.37,2013-08-21 10:34:00,
2013-08-21 06:44:00,67.9,65.8,30.17,WNW,298,0.0,0.0,93,0.00,BKN,,0.00,19.0,WeatherDisplay:10.37,2013-08-21 10:44:00,
2013-08-21 07:04:00,68.1,66.0,30.17,WNW,296,0.0,0.0,93,0.00,CLR,,0.00,37.0,WeatherDisplay:10.37,2013-08-21 11:04:00,
2013-08-21 07:14:00,68.2,66.4,30.18,WNW,292,0.0,0.0,94,0.00,CLR,,0.00,44.0,WeatherDisplay:10.37,2013-08-21 11:14:00,
2013-08-21 07:34:00,68.7,66.9,30.18,WNW,296,0.0,0.0,94,0.00,CLR,,0.00,65.0,WeatherDisplay:10.37,2013-08-21 11:34:00,
2013-08-21 07:44:00,69.6,67.8,30.18,WNW,292,0.0,0.0,94,0.00,SCT,,0.00,89.0,WeatherDisplay:10.37,2013-08-21 11:44:00,
2013-08-21 07:54:00,70.6,68.5,30.18,WNW,292,0.0,0.0,93,0.00,SCT,,0.00,95.0,WeatherDisplay:10.37,2013-08-21 11:54:00,
2013-08-21 08:04:00,71.3,68.9,30.18,WNW,292,0.0,0.0,92,0.00,SCT,,0.00,91.0,WeatherDisplay:10.37,2013-08-21 12:04:00,
2013-08-21 08:14:00,71.8,69.0,30.18,WNW,292,0.0,0.0,91,0.00,SCT,,0.00,109.0,WeatherDisplay:10.37,2013-08-21 12:14:00,
2013-08-21 08:24:00,72.3,69.2,30.19,WNW,292,0.0,0.0,90,0.00,SCT,,0.00,127.0,WeatherDisplay:10.37,2013-08-21 12:24:00,
2013-08-21 08:34:00,72.8,69.4,30.19,WNW,292,0.0,1.0,89,0.00,SCT,,0.00,128.0,WeatherDisplay:10.37,2013-08-21 12:34:00,
2013-08-21 08:44:00,73.4,69.6,30.18,WNW,292,0.0,1.0,88,0.00,SCT,,0.00,171.0,WeatherDisplay:10.37,2013-08-21 12:44:00,
2013-08-21 08:54:00,73.6,69.8,30.19,WNW,292,0.0,0.0,88,0.00,SCT,,0.00,196.0,WeatherDisplay:10.37,2013-08-21 12:54:00,
2013-08-21 09:04:00,74.0,70.2,30.19,WNW,292,0.0,0.0,88,0.00,SCT,,0.00,202.0,WeatherDisplay:10.37,2013-08-21 13:04:00,
2013-08-21 09:24:00,74.8,71.0,30.18,WNW,298,0.0,1.0,88,0.00,SCT,,0.00,376.0,WeatherDisplay:10.37,2013-08-21 13:24:00,
2013-08-21 09:34:00,75.9,71.8,30.18,WNW,298,0.0,3.0,87,0.00,SCT,,0.00,469.0,WeatherDisplay:10.37,2013-08-21 13:34:00,
2013-08-21 09:54:00,77.4,72.2,30.18,WNW,298,0.0,1.0,84,0.00,BKN,,0.00,548.0,WeatherDisplay:10.37,2013-08-21 13:54:00,
2013-08-21 10:04:00,78.1,72.2,30.18,NW,312,1.0,3.0,82,0.00,BKN,,0.00,438.0,WeatherDisplay:10.37,2013-08-21 14:04:00,
2013-08-21 10:14:00,78.4,72.4,30.18,NE,42,0.0,5.0,82,0.00,BKN,,0.00,554.0,WeatherDisplay:10.37,2013-08-21 14:14:00,
2013-08-21 23:54:00,76.2,73.1,30.06,South,191,0.0,14.0,90,0.01,BKN,,0.01,0.0,WeatherDisplay:10.37,2013-08-22 03:54:00,